| time (UTC) | temp F | wind direction | speed MPH | gust MPH | rain 1hr in | rain 24hr in | rain mn in | humidity % | barometer mb |
| 20260905084607 | 69 | 0 | 0.0 | 1.0 | 0.00 | 0.01 | 0.00 | 96 | 1013.5 |
| 20260905083059 | 69 | 0 | 0.0 | 0.0 | 0.00 | 0.01 | 0.00 | 96 | 1013.5 |
| 20260905081603 | 69 | 0 | 0.0 | 0.0 | 0.00 | 0.01 | 0.00 | 96 | 1013.5 |
| 20260905080100 | 69 | 0 | 0.0 | 0.0 | 0.00 | 0.01 | 0.00 | 95 | 1013.7 |
| 20260905074602 | 69 | 0 | 0.0 | 0.0 | 0.00 | 0.01 | 0.00 | 95 | 1013.6 |
| 20260905073109 | 69 | 0 | 0.0 | 1.0 | 0.00 | 0.01 | 0.00 | 95 | 1013.7 |
| 20260905071601 | 69 | 0 | 0.0 | 2.0 | 0.00 | 0.01 | 0.00 | 95 | 1013.8 |
| 20260905070101 | 69 | 0 | 0.0 | 0.0 | 0.00 | 0.01 | 0.00 | 95 | 1014.1 |
| 20260905064611 | 69 | 0 | 0.0 | 0.0 | 0.00 | 0.01 | 0.00 | 95 | 1014.3 |
| 20260905063113 | 69 | 0 | 0.0 | 0.0 | 0.00 | 0.01 | 0.00 | 95 | 1014.6 |
| 20260905061617 | 70 | 0 | 0.0 | 0.0 | 0.00 | 0.01 | 0.00 | 95 | 1014.8 |
| 20260905060104 | 70 | 0 | 0.0 | 0.0 | 0.00 | 0.01 | 0.00 | 95 | 1015.1 |
| 20260905054603 | 70 | 0 | 0.0 | 0.0 | 0.00 | 0.01 | 0.00 | 95 | 1015.3 |
| 20260905053059 | 70 | 0 | 0.0 | 1.0 | 0.00 | 0.01 | 0.00 | 95 | 1015.5 |
| 20260905051611 | 70 | 0 | 0.0 | 0.0 | 0.00 | 0.01 | 0.00 | 94 | 1015.7 |
| 20260905050108 | 71 | 0 | 0.0 | 0.0 | 0.00 | 0.01 | 0.00 | 94 | 1015.7 |
| 20260905044603 | 71 | 0 | 0.0 | 0.0 | 0.00 | 0.01 | 0.00 | 94 | 1015.7 |
| 20260905043100 | 71 | 0 | 0.0 | 0.0 | 0.00 | 0.01 | 0.00 | 94 | 1015.8 |
| 20260905041603 | 71 | 0 | 0.0 | 0.0 | 0.00 | 0.01 | 0.00 | 94 | 1015.7 |
| 20260905040105 | 71 | 0 | 0.0 | 0.0 | 0.00 | 0.01 | 0.00 | 94 | 1015.6 |
| 20260905034613 | 72 | 0 | 0.0 | 1.0 | 0.00 | 0.01 | 0.01 | 94 | 1015.6 |
| 20260905033110 | 72 | 0 | 0.0 | 0.0 | 0.00 | 0.01 | 0.01 | 94 | 1015.7 |
| 20260905031614 | 72 | 0 | 0.0 | 1.0 | 0.00 | 0.01 | 0.01 | 94 | 1015.6 |
| 20260905024604 | 73 | 360 | 0.0 | 1.0 | 0.00 | 0.01 | 0.01 | 93 | 1015.3 |
| 20260905023137 | 73 | 0 | 0.0 | 0.0 | 0.00 | 0.01 | 0.01 | 93 | 1015.5 |
| 20260905021602 | 73 | 0 | 0.0 | 0.0 | 0.00 | 0.01 | 0.01 | 92 | 1015.5 |
| 20260905020104 | 74 | 0 | 0.0 | 1.0 | 0.00 | 0.01 | 0.01 | 92 | 1015.5 |
| 20260905014557 | 74 | 0 | 0.0 | 0.0 | 0.00 | 0.01 | 0.01 | 92 | 1015.5 |
| 20260905013104 | 74 | 0 | 0.0 | 1.0 | 0.00 | 0.01 | 0.01 | 92 | 1015.4 |
| 20260905011606 | 74 | 0 | 0.0 | 1.0 | 0.00 | 0.01 | 0.01 | 92 | 1015.3 |
| 20260905010059 | 74 | 0 | 0.0 | 2.0 | 0.00 | 0.01 | 0.01 | 92 | 1015.0 |
| 20260905004600 | 75 | 0 | 0.0 | 1.0 | 0.00 | 0.01 | 0.01 | 92 | 1014.9 |
| 20260905003106 | 75 | 0 | 0.0 | 2.0 | 0.00 | 0.01 | 0.01 | 91 | 1014.6 |
| 20260905001610 | 76 | 0 | 0.0 | 1.0 | 0.00 | 0.01 | 0.01 | 89 | 1015.1 |
| 20260905000124 | 76 | 0 | 0.0 | 1.0 | 0.00 | 0.01 | 0.01 | 88 | 1015.0 |
| 20260904234607 | 77 | 0 | 0.0 | 3.0 | 0.00 | 0.01 | 0.01 | 89 | 1014.5 |
| 20260904233104 | 77 | 20 | 0.0 | 2.0 | 0.00 | 0.01 | 0.01 | 89 | 1014.3 |
| 20260904231604 | 78 | 40 | 0.0 | 3.0 | 0.00 | 0.01 | 0.01 | 87 | 1014.6 |
| 20260904224605 | 79 | 0 | 1.0 | 2.0 | 0.00 | 0.01 | 0.01 | 84 | 1014.8 |
| 20260904223107 | 80 | 0 | 0.0 | 1.0 | 0.00 | 0.01 | 0.01 | 81 | 1015.1 |
| 20260904221604 | 80 | 0 | 0.0 | 2.0 | 0.00 | 0.01 | 0.01 | 80 | 1015.2 |
| 20260904220118 | 80 | 0 | 0.0 | 2.0 | 0.00 | 0.01 | 0.01 | 79 | 1016.0 |
| 20260904214556 | 80 | 76 | 0.0 | 3.0 | 0.00 | 0.01 | 0.01 | 79 | 1016.0 |
| 20260904213107 | 80 | 92 | 1.0 | 3.0 | 0.00 | 0.01 | 0.01 | 80 | 1016.1 |
| 20260904211606 | 80 | 0 | 0.0 | 4.0 | 0.00 | 0.01 | 0.01 | 79 | 1016.3 |
| 20260904210119 | 80 | 87 | 1.0 | 6.0 | 0.00 | 0.01 | 0.01 | 80 | 1016.4 |
| 20260904204604 | 78 | 252 | 1.0 | 6.0 | 0.00 | 0.01 | 0.01 | 82 | 1015.9 |
| 20260904203109 | 76 | 360 | 1.0 | 4.0 | 0.00 | 0.01 | 0.01 | 86 | 1015.7 |
| 20260904201604 | 75 | 360 | 1.0 | 4.0 | 0.00 | 0.01 | 0.01 | 85 | 1015.7 |
| 20260904200105 | 74 | 34 | 1.0 | 3.0 | 0.01 | 0.01 | 0.01 | 87 | 1015.9 |
| 20260904194609 | 74 | 0 | 0.0 | 1.0 | 0.01 | 0.01 | 0.01 | 86 | 1016.4 |
| 20260904193116 | 75 | 0 | 0.0 | 2.0 | 0.01 | 0.01 | 0.01 | 85 | 1016.5 |
| 20260904191603 | 77 | 360 | 1.0 | 8.0 | 0.01 | 0.01 | 0.01 | 79 | 1016.4 |
| 20260904184611 | 91 | 46 | 4.0 | 15.0 | 0.00 | 0.00 | 0.00 | 56 | 1016.4 |
| 20260904183104 | 93 | 219 | 0.0 | 8.0 | 0.00 | 0.00 | 0.00 | 57 | 1015.5 |
| 20260904181610 | 93 | 261 | 2.0 | 7.0 | 0.00 | 0.00 | 0.00 | 56 | 1015.7 |
| 20260904180119 | 93 | 272 | 1.0 | 6.0 | 0.00 | 0.00 | 0.00 | 58 | 1015.5 |
| 20260904174613 | 92 | 0 | 1.0 | 8.0 | 0.00 | 0.00 | 0.00 | 59 | 1016.0 |
| 20260904173110 | 92 | 316 | 2.0 | 8.0 | 0.00 | 0.00 | 0.00 | 58 | 1016.4 |
| 20260904171606 | 93 | 250 | 0.0 | 5.0 | 0.00 | 0.00 | 0.00 | 59 | 1016.7 |
| 20260904164607 | 92 | 152 | 1.0 | 6.0 | 0.00 | 0.00 | 0.00 | 61 | 1016.9 |
| 20260904163110 | 92 | 0 | 0.0 | 0.0 | 0.00 | 0.00 | 0.00 | 60 | 1017.1 |
| 20260904161605 | 92 | 0 | 0.0 | 0.0 | 0.00 | 0.00 | 0.00 | 61 | 1017.2 |
| 20260904154559 | 91 | 0 | 0.0 | 0.0 | 0.00 | 0.00 | 0.00 | 67 | 1017.3 |
| 20260904153119 | 90 | 0 | 0.0 | 0.0 | 0.00 | 0.00 | 0.00 | 69 | 1017.4 |
| 20260904151605 | 89 | 0 | 0.0 | 0.0 | 0.00 | 0.00 | 0.00 | 67 | 1017.4 |
| 20260904150103 | 89 | 0 | 0.0 | 0.0 | 0.00 | 0.00 | 0.00 | 67 | 1017.5 |
| 20260904144607 | 88 | 0 | 0.0 | 0.0 | 0.00 | 0.00 | 0.00 | 73 | 1017.5 |
| 20260904143109 | 87 | 0 | 0.0 | 0.0 | 0.00 | 0.00 | 0.00 | 74 | 1017.4 |
| 20260904141607 | 86 | 0 | 0.0 | 0.0 | 0.00 | 0.00 | 0.00 | 76 | 1017.4 |
| 20260904140107 | 84 | 0 | 0.0 | 0.0 | 0.00 | 0.00 | 0.00 | 81 | 1017.4 |
| 20260904134607 | 82 | 0 | 0.0 | 0.0 | 0.00 | 0.00 | 0.00 | 82 | 1017.5 |
| 20260904133113 | 80 | 0 | 0.0 | 0.0 | 0.00 | 0.00 | 0.00 | 86 | 1017.6 |
| 20260904131613 | 79 | 0 | 0.0 | 0.0 | 0.00 | 0.00 | 0.00 | 90 | 1017.8 |
| 20260904130109 | 76 | 0 | 0.0 | 0.0 | 0.00 | 0.00 | 0.00 | 94 | 1017.7 |
| 20260904124612 | 75 | 0 | 0.0 | 0.0 | 0.00 | 0.00 | 0.00 | 96 | 1017.9 |
| 20260904123117 | 74 | 0 | 0.0 | 0.0 | 0.00 | 0.00 | 0.00 | 97 | 1017.6 |
| 20260904121605 | 73 | 0 | 0.0 | 0.0 | 0.00 | 0.00 | 0.00 | 97 | 1017.4 |
| 20260904120107 | 71 | 0 | 0.0 | 0.0 | 0.00 | 0.00 | 0.00 | 96 | 1017.4 |
| 20260904114559 | 71 | 0 | 0.0 | 0.0 | 0.00 | 0.00 | 0.00 | 96 | 1017.4 |
| 20260904113102 | 71 | 0 | 0.0 | 0.0 | 0.00 | 0.00 | 0.00 | 96 | 1017.0 |
| 20260904111611 | 71 | 0 | 0.0 | 0.0 | 0.00 | 0.00 | 0.00 | 96 | 1016.8 |
| 20260904110110 | 71 | 0 | 0.0 | 0.0 | 0.00 | 0.00 | 0.00 | 96 | 1016.7 |
| 20260904104605 | 71 | 0 | 0.0 | 0.0 | 0.00 | 0.00 | 0.00 | 96 | 1016.6 |
| 20260904103101 | 71 | 0 | 0.0 | 0.0 | 0.00 | 0.00 | 0.00 | 95 | 1016.5 |
| 20260904101615 | 71 | 0 | 0.0 | 0.0 | 0.00 | 0.00 | 0.00 | 95 | 1016.5 |
| 20260904100103 | 71 | 0 | 0.0 | 0.0 | 0.00 | 0.00 | 0.00 | 95 | 1016.4 |
| 20260904094601 | 71 | 0 | 0.0 | 0.0 | 0.00 | 0.00 | 0.00 | 95 | 1016.2 |
| 20260904093118 | 71 | 0 | 0.0 | 0.0 | 0.00 | 0.00 | 0.00 | 95 | 1016.2 |
| 20260904091602 | 72 | 0 | 0.0 | 0.0 | 0.00 | 0.00 | 0.00 | 95 | 1016.4 |